Location: Newark
(35.6799°N, 139.7636°E)
Time: 21:17:12
(UTC+00:00)

Explorer 7 - Pass Details

Date: 12 December 2019
Orbit: 485 x 679 km, 50.3° (Epoch: 17 January)

Event Time Altitude Azimuth Distance (km) Brightness Sun altitude
Rises 05:16:37 0° 228° (SW) 2,914 12.1 19.8°
Reaches altitude 10° 05:18:53 10° 228° (SW) 2,034 11.9 19.6°
Maximum altitude 05:23:36 88° 142° (SE) 668 7.6 18.9°
Drops below altitude 10° 05:28:31 10° 51° (NE) 2,111 9.3 18.3°
Sets 05:30:55 0° 51° (NE) 3,034 10.0 17.9°
